Wind_Speed
64 65 67 69 71 69 68 77 73 73 79 83 83 79 81 83 82 86 92 96 97 97 99 100 100 99 97 98 98 101 97 97 97 97 96 91 87 82 75 69 71 63 62 57 55 61 63
71 74 72 69 70 78 78 80 83 86 85 82 76 81 84 88 85 90 88 91 98 99 100 103 105 105 107 103 105 108 105 104 98 98 100 98 93 87 81 75 70 66 63 58 56 56 64
75 80 80 78 80 82 84 89 89 91 91 82 85 90 93 91 92 88 87 89 94 96 94 97 103 105 106 105 116 117 118 112 108 102 102 102 102 97 85 79 72 71 68 65 60 60 64
75 80 80 81 84 81 86 90 93 96 91 87 91 96 100 98 95 89 86 87 92 93 94 97 100 101 99 104 114 118 118 116 115 112 108 108 104 102 93 84 75 72 72 68 66 64 66
75 77 80 84 78 85 91 96 100 95 88 91 97 101 105 107 98 91 89 91 93 95 94 94 92 94 94 101 112 117 111 114 110 110 116 115 108 100 99 94 81 75 72 72 69 68 69
74 76 79 82 85 90 94 101 98 90 92 95 101 105 111 106 99 94 93 93 90 86 82 81 80 82 79 87 96 102 107 108 110 101 103 107 110 106 100 97 89 82 79 79 77 73 71
74 77 82 86 93 94 100 101 92 92 96 103 107 110 112 103 99 95 95 88 82 77 73 75 77 71 73 79 79 87 95 103 105 99 95 99 102 102 102 97 99 96 89 84 80 74 73
80 83 88 91 94 99 100 93 94 96 102 109 105 115 106 102 98 96 92 82 77 69 57 76 74 65 69 67 65 78 84 91 90 95 94 96 88 98 103 103 102 101 92 88 85 81 76
86 90 91 95 95 95 92 95 99 102 109 109 115 108 102 100 96 95 87 78 70 62 55 67 70 69 61 64 63 75 73 78 81 83 83 86 90 98 97 104 101 103 98 91 87 84 80
95 84 90 91 93 95 99 102 106 108 111 117 106 103 101 98 95 90 82 73 66 58 51 60 63 65 60 54 67 67 68 71 71 75 79 79 83 91 98 102 103 104 104 97 91 85 83
90 95 91 91 96 99 102 105 108 111 114 113 104 102 99 96 90 84 75 70 62 53 47 52 54 56 57 49 61 62 65 64 67 69 72 73 77 85 96 101 103 101 103 101 97 90 84
85 87 91 97 100 105 106 109 112 112 116 106 105 101 97 93 84 74 69 66 59 52 48 50 47 51 51 43 55 60 61 60 63 66 69 70 73 79 88 98 101 97 100 102 99 95 89
91 91 98 102 103 104 107 112 112 117 109 109 100 99 94 85 76 71 67 61 56 52 46 45 42 46 46 41 50 54 55 58 57 61 64 65 67 72 80 91 97 98 97 99 100 98 94
93 99 99 103 101 104 108 110 113 108 108 101 97 95 87 79 70 66 64 59 52 47 45 38 38 39 42 42 47 50 52 58 57 62 64 63 62 65 73 81 88 94 95 92 95 94 92
97 99 100 102 108 108 110 112 111 105 99 96 93 88 81 71 66 63 59 53 47 42 37 33 34 35 38 38 46 48 51 57 58 62 64 63 60 62 66 74 80 87 90 89 89 92 93
97 99 103 102 105 110 112 110 105 98 96 91 90 83 76 68 64 60 52 46 40 34 30 30 31 34 34 38 43 46 50 53 56 60 62 63 59 57 58 61 66 71 76 81 86 87 87
104 102 104 107 110 112 104 101 96 94 87 87 86 77 70 64 61 56 46 39 34 30 26 25 28 31 28 32 38 43 47 51 53 58 61 60 56 52 51 51 54 58 60 63 65 66 67
106 110 111 111 112 103 100 94 92 86 83 83 79 71 67 62 58 49 40 35 29 24 21 22 26 30 25 31 38 43 46 51 54 62 65 60 57 52 49 48 48 49 48 47 47 48 48
106 106 104 106 102 99 94 90 84 81 79 78 71 66 62 60 52 45 35 29 24 18 17 20 25 26 27 33 38 43 48 53 57 63 63 61 58 52 50 46 43 42 44 44 44 46 48
107 102 102 101 96 95 89 81 80 76 74 73 65 63 59 56 48 40 31 24 19 17 17 19 23 25 31 35 39 46 48 52 56 62 65 61 59 56 53 50 46 42 43 47 50 52 54
107 105 100 96 92 86 79 76 76 71 71 68 60 58 56 51 44 38 28 21 15 15 15 17 19 24 29 32 41 49 50 54 57 63 67 66 64 62 56 52 49 47 46 47 50 51 52
105 101 97 91 84 77 74 73 71 67 66 62 57 54 52 46 40 35 26 18 12 12 13 15 21 26 29 35 42 46 51 55 58 62 70 74 70 68 63 59 57 54 52 51 51 53 52
105 96 86 78 74 73 72 71 70 67 62 59 53 50 50 42 37 33 25 17 11 11 14 17 21 24 25 35 42 49 54 56 59 62 66 71 75 72 69 65 63 59 56 56 55 52 51
88 81 75 74 72 71 70 70 67 65 59 55 50 47 45 38 34 31 24 15 14 15 19 22 24 24 29 37 43 48 53 54 56 61 63 66 63 67 66 65 62 62 61 60 58 57 56
81 76 73 71 70 69 70 69 67 60 57 52 50 46 42 36 32 28 22 17 16 18 21 23 26 26 28 34 41 49 53 53 52 55 58 59 58 62 65 65 65 64 63 63 62 62 61
74 73 72 71 71 70 71 69 63 57 55 50 48 43 40 33 30 26 22 18 18 20 20 25 29 27 28 31 37 45 47 48 48 50 52 52 52 58 62 64 67 67 65 66 64 63 60
74 74 73 72 72 72 70 65 60 56 55 47 44 40 37 32 29 23 21 18 18 20 20 23 29 30 30 30 34 41 44 44 45 43 48 49 51 55 59 59 61 62 61 61 60 57 54
76 76 74 74 74 72 67 64 59 56 50 45 42 39 34 31 27 21 20 18 18 20 20 22 27 31 33 34 35 40 44 45 46 45 46 47 50 54 56 56 56 56 57 59 56 52 50
79 78 76 74 70 68 65 62 57 52 48 42 40 36 34 31 25 20 19 19 18 19 21 22 26 32 35 36 39 41 43 43 47 50 50 48 49 51 52 54 52 52 53 53 52 51 48
Wind_Direction
271 272 270 271 274 277 277 278 280 287 288 288 285 287 285 289 286 284 278 274 272 272 269 265 264 262 261 259 258 256 255 254 253 252 250 248 249 247 247 246 246 248 249 248 244 246 244
271 272 272 274 275 279 276 277 280 285 290 288 288 291 289 291 289 287 277 276 270 270 268 266 261 259 257 259 256 257 255 253 252 252 251 249 247 244 244 245 245 243 248 243 243 248 241
270 272 272 275 278 278 278 277 283 285 290 293 294 296 297 294 295 291 283 279 275 271 269 265 262 258 259 254 254 255 255 253 251 249 251 250 249 247 242 243 242 242 241 245 242 243 246
266 269 271 274 275 274 277 281 284 288 290 291 296 298 300 299 296 293 289 286 280 275 273 270 265 262 258 255 254 253 255 253 250 251 248 250 248 246 244 241 239 241 240 241 242 241 242
262 266 269 272 277 279 280 282 288 292 293 294 298 299 302 303 298 295 292 289 285 281 277 273 268 263 257 254 250 253 252 251 251 248 247 247 248 247 245 243 237 238 239 237 240 239 236
270 270 273 275 276 278 279 285 290 294 294 295 298 300 303 302 297 295 293 291 288 284 279 275 270 264 258 252 249 250 250 249 250 246 245 244 245 244 245 244 239 234 237 238 236 237 238
272 273 275 273 278 279 283 287 293 295 294 296 300 301 304 300 297 296 295 295 292 285 280 273 268 265 260 254 250 249 247 247 247 248 245 243 243 243 243 241 238 235 235 238 235 237 238
275 274 276 279 279 283 288 292 293 293 295 298 300 303 303 299 299 299 298 296 288 282 277 275 269 262 258 257 249 246 246 244 244 245 242 241 239 240 238 238 237 234 237 237 237 236 236
277 279 280 283 284 289 290 288 292 293 296 299 302 302 301 301 303 301 299 294 287 282 274 274 271 267 256 255 248 243 244 244 242 240 240 237 233 233 235 234 236 234 235 236 236 238 239
277 278 281 281 284 286 287 289 291 295 297 300 303 303 303 304 304 302 299 294 289 285 276 273 270 265 260 248 247 242 239 241 241 238 237 234 232 232 231 232 233 234 235 236 237 238 239
277 282 279 278 280 283 286 287 291 293 297 302 303 304 304 304 303 302 299 296 292 289 281 271 268 264 258 246 242 239 236 237 237 234 233 231 230 230 230 230 232 232 234 236 237 238 239
275 275 275 275 279 283 285 287 291 294 299 302 302 305 304 305 303 302 300 297 295 293 283 276 266 262 257 244 237 238 235 232 231 231 232 231 230 230 228 229 229 232 235 236 238 239 240
271 271 276 277 280 282 284 288 291 295 301 303 304 304 306 305 305 305 302 299 297 293 284 276 266 257 253 241 236 235 231 228 226 227 229 230 229 228 230 229 230 232 235 236 238 241 243
269 273 274 276 278 284 288 291 294 299 301 303 304 305 306 306 308 305 302 300 296 291 283 275 266 257 249 236 231 230 225 224 221 220 224 225 225 227 227 230 230 232 235 238 239 241 243
270 272 274 276 280 284 289 292 297 300 302 304 304 306 307 308 308 306 303 300 295 289 282 272 263 254 249 235 227 225 219 219 214 215 219 223 224 225 226 229 231 233 235 238 239 242 245
272 273 274 277 280 287 291 294 297 300 303 304 305 307 308 310 309 308 304 301 296 289 279 265 254 246 244 234 224 220 218 215 215 214 216 221 224 225 226 228 231 235 238 240 241 244 248
270 274 276 277 283 288 293 296 298 300 303 304 305 308 308 312 311 309 308 301 293 284 270 257 245 238 234 231 224 217 215 210 212 211 213 218 222 223 226 228 230 231 234 237 241 243 246
269 275 278 281 285 290 293 295 298 300 303 303 307 308 311 312 314 311 308 302 297 288 268 247 235 228 218 217 213 212 210 207 206 206 210 213 215 218 223 223 226 228 231 233 236 238 241
271 277 281 282 286 290 292 294 296 299 302 304 307 309 312 312 316 313 310 307 302 287 262 246 235 221 209 212 205 208 209 207 204 204 206 210 215 217 218 220 225 228 225 227 233 236 238
275 277 280 284 287 290 292 293 294 298 302 305 307 310 313 314 315 313 313 310 304 284 260 244 231 215 210 213 205 206 205 207 207 204 205 207 209 212 217 219 221 222 224 224 227 233 239
273 277 280 282 286 287 288 290 294 299 303 304 308 310 313 313 317 314 312 312 299 278 257 245 230 217 214 212 203 204 202 206 207 206 206 209 211 214 216 220 222 222 222 223 228 233 238
273 278 280 282 283 284 287 289 293 298 303 304 307 310 312 313 317 312 309 307 296 276 258 241 227 221 213 212 207 207 205 205 207 210 208 212 213 216 218 218 219 221 222 223 227 232 237
273 274 276 277 280 283 287 290 294 300 303 304 306 308 311 312 314 309 305 305 285 240 226 230 226 226 211 214 211 205 207 207 209 211 214 217 215 219 221 222 223 225 226 228 232 235 239
267 270 273 276 279 282 286 290 296 299 300 301 303 306 307 309 312 305 300 296 271 239 225 217 223 220 211 209 212 210 212 216 213 213 216 221 222 221 224 225 228 229 232 236 239 243 247
264 268 272 275 278 282 285 290 294 296 297 299 301 303 304 308 307 300 294 284 267 242 231 221 221 214 215 214 213 214 213 217 216 220 222 224 224 224 227 229 231 232 234 239 242 246 249
266 270 272 275 279 281 284 288 291 293 294 297 298 300 300 304 301 296 289 277 265 250 233 225 217 213 208 215 214 216 221 222 220 220 225 226 225 227 229 230 233 237 239 241 243 246 250
264 267 270 273 276 279 283 285 287 289 291 294 295 295 297 300 296 292 285 272 265 254 235 229 224 212 207 204 211 216 216 220 226 222 223 226 225 227 230 231 233 236 238 240 243 245 246
264 266 269 272 275 277 278 280 283 286 287 291 291 290 294 293 291 287 281 266 261 249 237 227 222 220 210 204 201 212 215 214 219 221 221 222 224 227 229 231 233 233 236 239 242 242 240
261 263 265 267 268 271 274 277 280 281 284 285 285 285 289 287 285 283 278 262 260 250 236 225 216 218 217 210 206 205 211 214 216 218 221 222 221 223 228 233 234 236 236 238 240 242 241
Height
10649 10646 10645 10643 10641 10637 10634 10631 10628 10625 10621 10617 10613 10609 10604 10600 10595 10590 10587 10582 10579 10579 10579 10576 10578 10583 10585 10590 10591 10584 10595 10596 10601 10607 10611 10616 10621 10627 10637 10642 10646 10658 10660 10665 10668 10668 10673
10633 10631 10628 10627 10625 10622 10618 10614 10612 10608 10603 10598 10593 10588 10583 10577 10570 10565 10559 10555 10550 10547 10545 10545 10546 10550 10556 10567 10550 10554 10566 10572 10580 10584 10590 10596 10601 10606 10619 10628 10635 10642 10648 10653 10655 10659 10660
10617 10615 10613 10612 10607 10604 10599 10595 10592 10587 10582 10576 10570 10564 10559 10550 10544 10539 10533 10528 10520 10520 10514 10512 10512 10513 10523 10533 10518 10525 10526 10541 10553 10563 10565 10571 10579 10590 10603 10610 10620 10626 10633 10638 10644 10647 10649
10600 10598 10597 10593 10589 10586 10581 10577 10572 10566 10561 10553 10547 10540 10532 10524 10516 10510 10505 10499 10489 10487 10484 10477 10476 10480 10492 10492 10484 10487 10496 10509 10521 10533 10542 10545 10554 10571 10585 10595 10605 10609 10618 10626 10629 10633 10636
10583 10580 10578 10575 10572 10570 10564 10556 10551 10547 10538 10531 10525 10516 10507 10496 10488 10481 10476 10467 10458 10454 10450 10441 10440 10439 10452 10455 10450 10449 10464 10475 10484 10503 10510 10516 10533 10551 10564 10577 10586 10595 10602 10608 10612 10618 10622
10566 10564 10561 10558 10555 10550 10543 10537 10532 10524 10517 10510 10503 10493 10483 10471 10462 10455 10448 10437 10429 10423 10417 10411 10407 10402 10415 10412 10414 10425 10430 10443 10450 10467 10478 10496 10512 10526 10542 10556 10577 10575 10580 10583 10592 10601 10612
10547 10545 10543 10540 10534 10529 10525 10518 10511 10503 10497 10489 10481 10471 10460 10445 10436 10429 10422 10412 10403 10396 10392 10376 10369 10380 10379 10381 10401 10399 10403 10410 10423 10434 10456 10466 10480 10513 10523 10532 10543 10548 10561 10568 10578 10589 10599
10528 10526 10524 10520 10515 10509 10503 10497 10491 10484 10477 10468 10459 10449 10437 10423 10412 10403 10392 10386 10379 10373 10379 10338 10342 10358 10357 10364 10379 10371 10379 10385 10399 10410 10419 10439 10472 10481 10490 10505 10515 10531 10545 10555 10562 10572 10583
10508 10507 10504 10499 10492 10488 10483 10478 10473 10464 10456 10447 10440 10428 10415 10399 10388 10375 10367 10358 10352 10351 10352 10325 10323 10328 10341 10346 10352 10343 10359 10365 10377 10390 10403 10420 10439 10448 10469 10480 10495 10512 10526 10534 10546 10557 10567
10489 10488 10484 10479 10474 10470 10466 10459 10452 10444 10435 10429 10419 10407 10392 10379 10367 10352 10341 10334 10328 10327 10325 10309 10306 10306 10317 10329 10322 10330 10343 10347 10359 10372 10384 10401 10418 10433 10448 10462 10475 10493 10506 10517 10528 10538 10548
10470 10469 10466 10460 10456 10452 10448 10441 10433 10425 10417 10409 10399 10386 10370 10358 10347 10333 10320 10311 10305 10304 10301 10295 10292 10290 10295 10308 10303 10312 10323 10334 10346 10357 10371 10385 10398 10412 10428 10444 10457 10475 10489 10499 10510 10521 10534
10452 10451 10446 10443 10438 10434 10430 10423 10416 10406 10399 10390 10378 10365 10350 10338 10325 10315 10303 10292 10285 10282 10279 10272 10274 10272 10276 10289 10285 10295 10309 10321 10331 10344 10355 10371 10384 10397 10413 10426 10443 10462 10471 10481 10493 10505 10519
10433 10430 10428 10424 10421 10417 10412 10405 10397 10389 10380 10370 10358 10343 10332 10320 10306 10294 10284 10275 10268 10263 10260 10257 10258 10257 10261 10270 10272 10282 10297 10308 10322 10334 10347 10359 10371 10385 10398 10413 10429 10443 10452 10464 10477 10491 10503
10412 10412 10409 10405 10403 10400 10395 10388 10379 10371 10361 10350 10338 10324 10314 10300 10290 10279 10268 10259 10252 10248 10243 10244 10243 10245 10248 10255 10261 10270 10284 10293 10309 10319 10333 10347 10360 10372 10385 10399 10414 10425 10437 10451 10464 10474 10484
10394 10394 10391 10388 10384 10383 10378 10371 10362 10354 10343 10332 10318 10307 10296 10283 10273 10263 10253 10244 10238 10234 10232 10231 10232 10235 10237 10245 10248 10261 10272 10282 10295 10309 10324 10335 10351 10361 10374 10387 10400 10412 10426 10436 10448 10457 10465
10376 10376 10373 10371 10368 10364 10360 10353 10345 10336 10328 10314 10301 10292 10278 10268 10258 10248 10238 10232 10225 10223 10222 10221 10223 10224 10230 10235 10242 10254 10265 10277 10289 10302 10316 10329 10342 10354 10365 10377 10389 10400 10410 10422 10433 10442 10448
10355 10357 10356 10354 10351 10348 10344 10337 10327 10320 10312 10298 10288 10277 10264 10255 10244 10234 10227 10220 10215 10213 10214 10213 10215 10217 10223 10231 10239 10249 10260 10272 10285 10299 10312 10323 10336 10348 10358 10370 10379 10388 10397 10407 10417 10427 10433
10338 10337 10338 10338 10334 10330 10327 10320 10312 10306 10297 10284 10275 10264 10252 10243 10234 10224 10217 10211 10208 10208 10208 10207 10207 10209 10217 10223 10233 10243 10255 10266 10278 10289 10303 10317 10328 10339 10351 10360 10368 10378 10388 10397 10407 10414 10420
10320 10321 10320 10318 10317 10313 10310 10304 10296 10293 10283 10271 10263 10252 10242 10232 10224 10215 10210 10205 10201 10202 10201 10201 10202 10207 10212 10217 10227 10238 10248 10258 10268 10281 10295 10308 10321 10332 10343 10354 10363 10371 10379 10389 10397 10402 10408
10299 10304 10303 10300 10299 10296 10292 10288 10281 10279 10270 10259 10252 10241 10232 10224 10216 10208 10205 10200 10198 10196 10196 10196 10199 10202 10205 10209 10221 10230 10242 10254 10264 10275 10289 10301 10312 10324 10334 10342 10351 10361 10370 10379 10386 10392 10396
10284 10284 10284 10282 10282 10281 10277 10273 10268 10265 10257 10247 10242 10233 10224 10216 10209 10201 10200 10196 10195 10193 10192 10193 10197 10200 10203 10210 10216 10223 10236 10247 10257 10269 10283 10292 10302 10312 10323 10334 10343 10351 10360 10368 10375 10382 10384
10264 10266 10266 10266 10264 10263 10261 10258 10254 10254 10247 10236 10232 10224 10216 10210 10204 10196 10194 10192 10192 10190 10190 10191 10192 10195 10201 10206 10213 10222 10231 10239 10250 10261 10271 10279 10291 10301 10312 10321 10329 10339 10349 10357 10364 10369 10374
10246 10248 10250 10249 10249 10248 10246 10243 10240 10237 10233 10225 10222 10216 10206 10203 10198 10192 10189 10188 10188 10186 10185 10186 10189 10192 10200 10204 10210 10220 10227 10236 10245 10254 10263 10269 10279 10291 10302 10312 10320 10330 10340 10345 10351 10359 10363
10230 10231 10233 10233 10233 10233 10231 10229 10227 10224 10221 10216 10212 10207 10200 10196 10191 10186 10184 10183 10182 10180 10181 10180 10183 10189 10195 10200 10207 10215 10223 10230 10238 10246 10254 10261 10277 10288 10296 10304 10313 10322 10329 10334 10341 10347 10352
10212 10215 10216 10217 10217 10217 10215 10214 10214 10213 10209 10206 10201 10197 10191 10188 10185 10180 10178 10176 10176 10176 10176 10178 10179 10185 10191 10197 10203 10208 10216 10224 10235 10241 10249 10258 10270 10280 10287 10295 10301 10308 10316 10322 10330 10334 10338
10193 10196 10198 10200 10200 10201 10201 10201 10201 10200 10197 10196 10191 10187 10183 10181 10177 10174 10172 10170 10169 10170 10173 10174 10176 10180 10187 10193 10198 10204 10212 10219 10227 10237 10244 10252 10263 10269 10274 10282 10288 10296 10304 10307 10315 10320 10327
10176 10179 10181 10184 10185 10185 10186 10187 10188 10188 10186 10185 10181 10179 10175 10173 10170 10168 10165 10164 10164 10164 10167 10170 10170 10173 10180 10187 10193 10199 10206 10216 10224 10232 10238 10244 10252 10258 10261 10270 10278 10285 10290 10295 10301 10311 10313
10156 10160 10164 10167 10169 10170 10172 10173 10176 10176 10174 10174 10171 10169 10167 10165 10163 10162 10159 10158 10159 10159 10162 10165 10169 10170 10175 10181 10187 10193 10200 10208 10216 10222 10228 10235 10242 10247 10252 10260 10267 10274 10281 10284 10290 10295 10302
10139 10143 10147 10151 10154 10156 10158 10160 10162 10163 10162 10162 10161 10160 10158 10157 10157 10155 10153 10152 10153 10155 10157 10159 10162 10166 10169 10174 10181 10187 10195 10201 10207 10211 10217 10225 10232 10237 10243 10248 10256 10263 10269 10274 10279 10284 10290